212  
ASUS44 KSHV 260610  
RWRSHV  
 
THE FOUR STATE AREA WEATHER ROUNDUP  
NATIONAL WEATHER SERVICE SHREVEPORT LA  
100 AM CDT TUE OCT 26 2021  
 
NOTE: "FAIR" INDICATES FEW OR NO CLOUDS BELOW 12000 FEET  
WITH NO SIGNIFICANT WEATHER AND/OR S TO VISIBILITY
.  
 
!LAZ001-LAZ014-TXZ097-260700  
SHREVEPORT...MONROE...TEXARKANA RADIOS  
 
CITY SKY/WX TMP DP RH WIND PRES REMARKS
 
SHREVEPORT CLEAR 66 52 60 SE5 29.98R  
MONROE CLEAR 64 56 75 NE7 30.01F  
NATCHITOCHES CLEAR 63 58 84 CALM 29.99S  
TEXARKANA PTCLDY 65 53 65 E8 30.00S  

 
 
!LAZ001-LAZ014-TXZ097-260700  
OTHER LOCATIONS...  
 
CITY SKY/WX TMP DP RH WIND PRES REMARKS
 
DOWNTOWN SHV CLEAR 68 54 60 E8 29.98S  
BOSSIER CITY CLEAR 66 54 63 E6 29.97S  
RUSTON CLEAR 62 55 75 CALM 30.04S  
LITTLE ROCK PTCLDY 56 49 77 NE8 30.05F  
EL DORADO CLEAR 58 54 86 NE6 30.01F  
JACKSON CLEAR 63 55 75 NE8 30.00S  
NEW ORLEANS CLEAR 72 70 93 CALM 29.96S  
HOUSTON MOCLDY 73 70 90 S3 29.94F  
LUFKIN CLEAR 71 70 96 CALM 29.95F  
TYLER PTCLDY 72 62 71 SE7 29.95S  
DAL FT WORTH CLEAR 71 62 73 SE5 29.90F  

 
 
!TXZ136-TXZ165-260700  
TYLER...LUFKIN RADIOS  
 
CITY SKY/WX TMP DP RH WIND PRES REMARKS
 
TYLER PTCLDY 72 62 71 SE7 29.95S  
GILMER NOT AVBL  
LONGVIEW MOCLDY 73 52 47 E7 29.95F  
LUFKIN CLEAR 71 70 96 CALM 29.95F  

 
 
!TXZ136-TXZ165-260700  
OTHER LOCATIONS...  
 
CITY SKY/WX TMP DP RH WIND PRES REMARKS
 
NACOGDOCHES CLEAR 68 67 96 CALM 29.97F FOG  
BEAUMONT FOG 70 70 100 CALM 29.95F VSB 1/4  
HOUSTON MOCLDY 73 70 90 S3 29.94F  
COLLEGE STN CLEAR 75 71 87 S6 29.94F  
AUSTIN PTCLDY 70 69 97 S5 29.93F  
DAL FT WORTH CLEAR 71 62 73 SE5 29.90F  
TEXARKANA PTCLDY 65 53 65 E8 30.00S  
SHREVEPORT CLEAR 66 52 60 SE5 29.98R  
FORT POLK CLEAR 71 69 93 NE5 29.96F  
LAKE CHARLES FOG 69 68 96 CALM 29.96S VSB 1/4  

 
 
 
CLICK HERE TO GO TO PREVIOUS BULLETINS.

The Nexlab LA Page
The Nexlab TX Page
The Nexlab AR Page
The Nexlab OK Page Main Text Page